Lumberton, NC

12:28 AM EST on December 18, 2017 (GMT -0500)
Lumberton Municipal

Weather History for KLBT - June, 2012

Change the Weather History Date:

Thursday, June 28, 2012

  Actual Average Record
Temperature  
Mean Temperature 77 °F 80 °F  
Max Temperature 93 °F 91 °F 98 °F (2011)
Min Temperature 60 °F 70 °F 60 °F (2012)
Degree Days  
Heating Degree Days 0 0  
Month to date heating degree days 0 0  
Since 1 June heating degree days 0 0  
Since 1 July heating degree days 2138 2761  
Cooling Degree Days 12 15  
Month to date cooling degree days 274 357  
Year to date cooling degree days 680 607  
Since 1 June cooling degree days 274 357  
Growing Degree Days 26 (Base 50)    
Moisture  
Dew Point 62 °F    
Average Humidity 67    
Maximum Humidity 100    
Minimum Humidity 34    
Precipitation  
Precipitation 0.00 in 0.13 in 0.65 in (2005)
Month to date precipitation 5.07 4.07  
Year to date precipitation 22.10 19.14  
Sea Level Pressure  
Sea Level Pressure 29.96 in    
Wind  
Wind Speed 5 mph (SW)    
Max Wind Speed 15 mph    
Max Gust Speed 30 mph    
Visibility 10 miles    
Events      
T = Trace of Precipitation, MM = Missing Value Source: NWS Daily Summary

Daily Weather History Graph

Daily Weather History Graph

Search for Another Location

Airport or City:

Trip Planner

Search our weather history database for the weather conditions in past years. The results will help you decide how hot, cold, wet, or windy it might be!

Date:

Astronomy

Jun. 28, 2012 Rise Set
Actual Time 6:05 AM EDT 8:33 PM EDT
Civil Twilight 5:36 AM EDT 9:02 PM EDT
Nautical Twilight 5:00 AM EDT 9:38 PM EDT
Astronomical Twilight 4:20 AM EDT 10:18 PM EDT
Moon 3:12 PM EDT (6/28) 1:29 AM EDT (6/28)
Length of Visible Light 15h 26m
Length of Day
14h 27m
Waxing Gibbous, 67% of the Moon is Illuminated
Jun 28
Waxing Gibbous
Jul 3
Full
Jul 10
Last Quarter
Jul 19
New
Jul 26
First Quarter

Hourly Weather History & Observations

Time (EDT) Temp. Heat Index Dew Point Humidity Pressure Visibility Wind Dir Wind Speed Gust Speed Precip Events Conditions
12:54 AM 64.0 °F - 62.1 °F 93% 29.97 in 10.0 mi Calm Calm - N/A   Clear
1:54 AM 64.0 °F - 62.1 °F 93% 29.96 in 10.0 mi Calm Calm - N/A   Clear
2:54 AM 62.1 °F - 60.1 °F 93% 29.96 in 10.0 mi Calm Calm - N/A   Clear
3:54 AM 62.1 °F - 60.1 °F 93% 29.96 in 10.0 mi Calm Calm - N/A   Clear
4:54 AM 61.0 °F - 60.1 °F 97% 29.98 in 10.0 mi Calm Calm - N/A   Clear
5:54 AM 60.1 °F - 59.0 °F 96% 30.00 in 9.0 mi Calm Calm - N/A   Clear
6:54 AM 61.0 °F - 60.1 °F 97% 30.01 in 9.0 mi Calm Calm - N/A   Clear
7:54 AM 66.9 °F - 61.0 °F 81% 30.02 in 10.0 mi Calm Calm - N/A   Clear
8:54 AM 73.0 °F - 62.1 °F 68% 30.04 in 10.0 mi WSW 3.5 mph - N/A   Clear
9:54 AM 79.0 °F - 61.0 °F 54% 30.03 in 9.0 mi SW 5.8 mph - N/A   Clear
10:54 AM 82.9 °F 84.0 °F 63.0 °F 51% 30.02 in 10.0 mi SW 9.2 mph - N/A   Clear
11:54 AM 84.9 °F 85.0 °F 61.0 °F 44% 30.01 in 10.0 mi WSW 6.9 mph - N/A   Clear
12:54 PM 87.1 °F 87.0 °F 61.0 °F 41% 29.99 in 10.0 mi SW 9.2 mph - N/A   Clear
1:54 PM 90.0 °F 88.8 °F 57.9 °F 34% 29.98 in 10.0 mi West 9.2 mph - N/A   Clear
2:54 PM 91.9 °F 91.5 °F 60.1 °F 34% 29.97 in 10.0 mi SW 8.1 mph 17.3 mph N/A   Clear
3:54 PM 91.9 °F 91.8 °F 61.0 °F 35% 29.94 in 10.0 mi WSW 11.5 mph 18.4 mph N/A   Clear
4:54 PM 91.9 °F 91.8 °F 61.0 °F 35% 29.93 in 10.0 mi SW 10.4 mph - N/A   Clear
5:54 PM 91.9 °F 91.5 °F 60.1 °F 34% 29.91 in 10.0 mi West 10.4 mph - N/A   Clear
6:54 PM 90.0 °F 90.3 °F 62.1 °F 39% 29.90 in 10.0 mi SW 8.1 mph - N/A   Clear
7:54 PM 87.1 °F 88.9 °F 64.9 °F 48% 29.91 in 10.0 mi SSW 3.5 mph - N/A   Clear
8:54 PM 82.9 °F 84.6 °F 64.9 °F 54% 29.90 in 10.0 mi SSW 5.8 mph - N/A   Clear
9:54 PM 81.0 °F 82.7 °F 64.9 °F 58% 29.91 in 10.0 mi SSW 5.8 mph - N/A   Clear
10:54 PM 80.1 °F 81.9 °F 64.9 °F 60% 29.91 in 10.0 mi SSW 4.6 mph - N/A   Clear
11:54 PM 77.0 °F - 66.0 °F 69% 29.91 in 10.0 mi SSW 3.5 mph - N/A   Clear